Content
SEND FEEDBACK

Daily
Averages
Monthly
Summary
United States of America

LOWER ECHO LAKE, CALIFORNIA


Home > North America > United States > California
Elevation: 6350 feet     Latitude: 38 51N     Longitude: 120 01W

WEATHER
 
SELECT A DAY
Number of Records: 174,391;   Date Range: 1/1/95 - 7/26/14
 
SHARE

PRINT THIS DATA

[ ← Previous Day ]
WEATHER ALMANAC - JANUARY 14, 2013
[ Next Day → ]
[ °C ]   °F
Weather ElementAverageHighLow
Temperature13.2 °F33.1 °F (11:53 am)-9 °F (2:53 am)
Dewpoint0.5 °F14 °F (6:53 pm)-16.1 °F (4:53 am)
Humidity60.1 %77 % (11:53 pm)29 % (11:53 am)
Barometer30.45 in30.55 in (7:53 pm)30.33 in (1:53 am)
Wind Speed3 mph9.2 mph (12:53 pm)
Weather ElementAverage
Visibility9.2 mi
Wind DirectionENE (70 °)

Weather ElementTotal
Precipitation0.01 in
Heating Degree Days53 (Base 65)
Averaged from 22 records on January 14, 2013
WEATHER CONDITIONS BREAKOUT
WIND DIRECTION BREAKOUT
WEATHER BY HOUR - JANUARY 14, 2013
[ °C ]   °F
Local TimeTemperatureDewpointHumidityBarometerVisibilityWind DirectionWind SpeedGust SpeedPrecipitationEventsConditions
1:53 AM-8.0 °F-14.1 °F75 %30.33 in7.0 miSSW (200°)3.5 mphClear
2:53 AM-9.0 °F-15.0 °F75 %30.36 in7.0 miCalmClear
3:53 AM-8.0 °F-15.0 °F71 %30.38 in7.0 miCalmClear
4:53 AM-9.0 °F-16.1 °F71 %30.42 in7.0 miSSW (200°)3.5 mphClear
5:53 AM-9.0 °F-16.1 °F71 %30.46 in9.0 miSouth (190°)3.5 mphClear
6:53 AM-8.0 °F-15.0 °F71 %30.48 in10.0 miCalmClear
7:53 AM-8.0 °F-15.0 °F71 %30.53 in8.0 miSSW (200°)4.6 mphClear
8:53 AM3.0 °F-4.0 °F73 %30.49 in10.0 miSouth (180°)4.6 mphClear
9:53 AM10.9 °F1.9 °F67 %30.50 in8.0 miCalmClear
10:53 AM21.9 °F3.9 °F46 %30.42 in10.0 miSouth (180°)5.8 mphClear
11:53 AM33.1 °F3.9 °F29 %30.34 in10.0 miVariable3.5 mphClear
12:53 PM33.1 °F6.1 °F32 %30.37 in10.0 miNNE (20°)9.2 mphClear
2:53 PM33.1 °F3.9 °F29 %30.45 in10.0 miNNE (20°)9.2 mph0.01 inClear
3:53 PM30.9 °F7.0 °F37 %30.46 in10.0 miVariable4.6 mphClear
4:53 PM28.9 °F10.0 °F45 %30.49 in10.0 miVariable3.5 mphClear
5:53 PM26.1 °F10.9 °F53 %30.53 in9.0 miCalmPartly Cloudy
6:53 PM26.1 °F14.0 °F60 %30.54 in10.0 miCalmOvercast
7:53 PM23.0 °F12.0 °F63 %30.55 in10.0 miCalmPartly Cloudy
8:53 PM24.1 °F14.0 °F65 %30.48 in10.0 miCalmPartly Cloudy
9:53 PM21.0 °F12.0 °F68 %30.47 in10.0 miSouth (170°)5.8 mphClear
10:53 PM18.0 °F10.9 °F74 %30.43 in10.0 miSouth (180°)4.6 mphClear
11:53 PM17.1 °F10.9 °F77 %30.39 in10.0 miCalmClear
Hourly data recorded from KTVL, located miles away from Lower Echo Lake, California







STORIES FROM OUR PARTNERS